Погода в Артёмовке

Украина / Харьковская область     49°55′38″N   37°04′49″E
темп.,
°C
ветер,
м/с
пор.,
м/с
влажн.,
%
обл.,
%
осадки,
мм/ч
давл.,
гПа
погр.,
м
20 июня, вс
вс2000:00+18всв5128116 0.0 1021266
03:00+17в5137789 0.0 1020263
06:00+17в614785 0.0 1020321
09:00+21в61165100 0.0 1020505
12:00+24в795590 0.0 1019828
15:00+25в71063100 0.0 1018912
18:00+24в7136962 0.0 1017705
21:00+20св4884100 0.0 1017177
21 июня, пн
пн2100:00+19всв41176100 0.0 1017272
03:00+19в51369100 0.0 1016274
06:00+18в5127490 0.0 1016211
09:00+23в613658 0.0 1016423
12:00+27вюв7115215 0.0 1016834
15:00+28в6115683 0.0 10151082
18:00+27вюв612622 0.0 1015630
21:00+21всв513803 0.0 1016232
22 июня, вт
вт2200:00+21в615658 0.0 1015281
03:00+20в6136982 0.0 1016247
06:00+19в51375100 0.0 1016245
09:00+24в6136397 0.0 1016440
12:00+29вюв694912 0.0 1016847
15:00+30вюв69525 0.0 10161218
18:00+28всв611655 0.0 1016548
21:00+24всв513785 0.0 1016245
23 июня, ср
ср2300:00+24в7176519 0.0 1015381
03:00+22в51469100 0.0 1015296
06:00+21в51177100 0.0 1016204
09:00+23вюв51171100 0.0 1016275
12:00+29вюв61049100 0.0 1017743
15:00+31вюв5853100 0.0 10171101
18:00+29в386592 0.0 1017381
21:00+24всв3686100 0.0 101786
24 июня, чт
чт2400:00+23всв3380100 0.0 101744
03:00+21всв356914 0.0 101865
06:00+20всв397457 0.0 1018156
09:00+26в59595 0.0 1018400
12:00+30в574814 0.0 1018829
15:00+32в56459 0.0 10181147
18:00+29всв486260 0.0 1018363
21:00+24всв357758 0.0 101872